Content
SEND FEEDBACK

Daily
Averages
Monthly
Summary
Syria

HARRAN AL 'AWAMID, SYRIA


Home > Middle East > Syria
Elevation: 2005 feet     Latitude: 33 25N     Longitude: 036 31E

WEATHER
 
SELECT A DAY
Number of Records: 161,750;   Date Range: 7/1/96 - 9/22/14
 
SHARE

PRINT THIS DATA

[ ← Previous Day ]
WEATHER ALMANAC - FEBRUARY 13, 2013
[ Next Day → ]
[ °C ]   °F
Weather ElementAverageHighLow
Temperature46.7 °F62.6 °F (3:00 pm)32 °F (6:00 am)
Dewpoint37 °F42.8 °F (10:00 am)32 °F (6:00 am)
Humidity71.4 %100 % (3:00 am)34 % (2:00 pm)
Barometer30.16 in30.25 in (8:00 am)30.12 in (3:00 pm)
Wind Speed3.6 mph9.2 mph (5:00 pm)
Weather ElementAverage
Visibility3 mi
Wind DirectionENE (78.8 °)

Weather ElementTotal
Precipitation---
Heating Degree Days17.7 (Base 65)
Averaged from 27 records on February 13, 2013
WEATHER CONDITIONS BREAKOUT
WIND DIRECTION BREAKOUT
WEATHER BY HOUR - FEBRUARY 13, 2013
[ °C ]   °F
Local TimeTemperatureDewpointHumidityBarometerVisibilityWind DirectionWind SpeedGust SpeedPrecipitationEventsConditions
1:00 AM39.2 °F35.6 °F87 %30.15 inWNW (290°)4.6 mphClear
2:00 AM37.0 °F34.0 °F84 %30.15 in9.0 miCalm
2:00 AM37.4 °F33.8 °F87 %30.15 inCalmClear
3:00 AM35.6 °F35.6 °F100 %30.15 in1.9 miNNW (340°)4.6 mphMist
4:00 AM37.4 °F33.8 °F87 %30.15 inCalmFogFog
5:00 AM33.8 °F33.8 °F100 %30.15 in0.2 miNorth (10°)4.6 mphFogFog
6:00 AM32.0 °F32.0 °F100 %30.15 in0.2 miNorth (10°)4.6 mphFogFog
7:00 AM32.0 °F32.0 °F100 %30.21 in0.2 miNorth (10°)2.3 mphFogFog
8:00 AM35.0 °F35.0 °F99 %30.25 in0.0 miCalmFogLight Fog
8:00 AM35.6 °F35.6 °F100 %30.21 in0.1 miCalmFogFog
9:00 AM39.2 °F39.2 °F100 %30.24 in0.7 miNW (320°)2.3 mphMist
10:00 AM50.0 °F42.8 °F76 %30.24 inCalmClear
11:00 AM55.4 °F41.0 °F58 %30.21 inCalmClear
12:00 PM57.2 °F41.0 °F55 %30.18 inENE (70°)4.6 mphClear
1:00 PM57.2 °F39.2 °F51 %30.15 inEast (90°)4.6 mphClear
2:00 PM60.0 °F39.0 °F34 %30.14 in9.0 miNW (310°)4.5 mph
2:00 PM60.8 °F39.2 °F45 %30.15 inNW (310°)4.6 mphClear
3:00 PM62.6 °F39.2 °F42 %30.12 inCalmClear
4:00 PM59.0 °F37.4 °F45 %30.12 inNE (50°)2.3 mphClear
5:00 PM57.2 °F35.6 °F44 %30.12 inNorth (10°)9.2 mphClear
6:00 PM51.8 °F37.4 °F58 %30.12 inNorth (10°)4.6 mphClear
7:00 PM50.0 °F37.4 °F62 %30.15 inNorth (10°)4.6 mphClear
8:00 PM49.0 °F37.0 °F53 %30.17 in9.0 miNNE (30°)8.9 mph
8:00 PM50.0 °F37.4 °F62 %30.15 inNNE (30°)4.6 mphClear
9:00 PM50.0 °F37.4 °F62 %30.15 inNNE (30°)9.2 mphClear
10:00 PM48.2 °F37.4 °F66 %30.15 inNNE (30°)6.9 mphClear
11:00 PM48.2 °F39.2 °F71 %30.15 inNorth (10°)6.9 mphClear
Hourly data recorded from OSDI, located miles away from Harran al 'Awamid, Syria







STORIES FROM OUR PARTNERS